Location: Bismarck
(46.7731°N, 100.8200°W)
Time: 08:48:58
(UTC-05:00)

Amateur Radio Satellites - All Passes

Search period start: 24 August 2016 08:18
Search period end: 25 August 2016 08:18
Location: Bismarck, 46.7731°N, 100.8200°W

Satellite Date Start Highest point End Downlink Frequencies (MHz)
Time Altitude Azimuth
HO-68 24 Aug 08:32:16 08:37:36 22° 90° (E) 08:42:53 435.675
Cosmos 2491 24 Aug 08:36:23 08:43:27 28° 280° (W) 08:50:31 435.465 / 435.565
HORYU 2 24 Aug 08:42:57 08:44:33 12° 303° (WNW) 08:46:09 437.375
Cosmos 2504 24 Aug 08:47:35 08:55:57 63° 93° (E) 09:03:46 435.465 / 435.565
Cubesat XI-IV 24 Aug 08:53:43 08:58:52 51° 291° (WNW) 09:03:59 437.490
CINEMA 3 24 Aug 08:58:20 09:02:31 32° 95° (E) 09:06:30 145.822/145.860
GOMX 1 24 Aug 08:58:23 09:03:33 42° 292° (WNW) 09:08:33 467.674
PHONESAT 2.4 24 Aug 08:58:53 09:00:23 13° 201° (SSW) 09:01:53 2401.200-2431.200
SEEDS 24 Aug 09:02:03 09:05:01 19° 91° (E) 09:08:00 437.485
BRITE-PL 24 Aug 09:02:14 09:06:38 24° 299° (WNW) 09:11:02 437.365/2234.400
SO-50 24 Aug 09:04:58 09:09:06 30° 40° (NE) 09:13:08 436.795
CUTE-I 24 Aug 09:07:05 09:12:00 39° 294° (WNW) 09:16:53 437.470
NOAA 18 24 Aug 09:13:11 09:18:19 42° 294° (WNW) 09:23:25 137.9125
CANX-2 24 Aug 09:14:36 09:18:35 39° 98° (E) 09:22:34 2200.000
CUTE 1.7 + AOD 2 24 Aug 09:21:31 09:25:31 40° 98° (E) 09:29:31 437.475
NOAA 15 24 Aug 09:21:59 09:26:16 25° 299° (WNW) 09:30:32 137.62
DOVE 4 24 Aug 09:25:23 09:30:22 46° 291° (WNW) 09:35:05 437.250
LilacSat-2 24 Aug 09:33:48 09:35:23 12° 299° (WNW) 09:36:58 437.200
AO-85 24 Aug 09:36:06 09:40:10 23° 324° (NW) 09:44:02 145.980
STRAND 1 24 Aug 09:38:29 09:41:25 15° 271° (W) 09:44:22 437.568
RS-15 24 Aug 09:40:26 09:51:56 42° 26° (NNE) 10:03:27 29.354- 29.394
AIST 1 24 Aug 09:42:23 09:44:37 14° 83° (E) 09:46:52
PRISM 24 Aug 09:42:48 09:46:52 74° 257° (WSW) 09:51:00 437.425
CUBEBUG 2 24 Aug 09:43:21 09:46:59 26° 94° (E) 09:50:31 437.445
AAUSAT CUBESAT 2 24 Aug 09:44:18 09:47:55 28° 95° (E) 09:51:32 437.432
COMPASS 1 24 Aug 09:48:08 09:52:04 39° 98° (E) 09:55:58 437.405
UWE-3 24 Aug 09:49:43 09:52:54 20° 92° (E) 09:56:03 435.000/436.395/437.385
Oscar 11 24 Aug 09:52:36 09:55:07 15° 90° (E) 09:57:38 145.826/435.025
FUNcube-1 24 Aug 09:54:50 09:57:03 14° 89° (E) 09:59:15 145.935
YUBILEINY 24 Aug 09:56:28 10:03:42 27° 298° (WNW) 10:10:58 435.215
ANTELSAT 24 Aug 09:57:48 10:01:11 20° 63° (ENE) 10:04:31 437.575/2403.000
ZACube-1 24 Aug 10:13:09 10:16:32 23° 93° (E) 10:19:52 437.345
HO-68 24 Aug 10:18:54 10:26:06 80° 289° (WNW) 10:33:15 435.675
DELFI C3 24 Aug 10:22:57 10:24:43 13° 89° (E) 10:26:30 145.870
TIGRISAT 24 Aug 10:28:52 10:33:06 36° 69° (ENE) 10:37:16 435.000
CINEMA 3 24 Aug 10:35:32 10:39:36 30° 294° (WNW) 10:43:30 145.822/145.860
SEEDS 24 Aug 10:36:57 10:40:57 44° 289° (WNW) 10:44:57 437.485
Cosmos 2504 24 Aug 10:42:28 10:49:49 32° 293° (WNW) 10:56:47 435.465 / 435.565
SO-50 24 Aug 10:45:20 10:49:46 46° 240° (WSW) 10:54:04 436.795
BEESAT 3 24 Aug 10:46:33 10:48:01 12° 109° (ESE) 10:49:28 437.485
CUSAT 1 24 Aug 10:49:28 10:54:39 33° 71° (ENE) 11:00:55 437.405
CANX-2 24 Aug 10:50:57 10:54:14 22° 295° (WNW) 10:57:31 2200.000
POPSAT HIP 1 24 Aug 10:54:04 10:55:42 12° 58° (ENE) 10:57:19 437.405
ISS 24 Aug 10:54:29 10:56:57 20° 138° (SE) 10:59:24 145.825
UNISAT 6 24 Aug 10:55:44 11:00:21 70° 74° (ENE) 11:04:54 437.425
CUTE 1.7 + AOD 2 24 Aug 10:57:54 11:01:08 22° 295° (WNW) 11:04:22 437.475
DANDE 24 Aug 11:10:12 11:13:20 17° 69° (ENE) 11:16:59 436.750
AIST 1 24 Aug 11:17:22 11:21:40 61° 282° (WNW) 11:26:01
AAUSAT CUBESAT 2 24 Aug 11:19:47 11:23:22 29° 292° (WNW) 11:26:57 437.432
CUBEBUG 2 24 Aug 11:19:48 11:23:40 32° 292° (WNW) 11:27:24 437.445
QB50P2 24 Aug 11:21:24 11:24:46 23° 64° (ENE) 11:28:08 145.880/145.840
POLYITAN 1 24 Aug 11:23:54 11:27:18 23° 65° (ENE) 11:30:42 437.675
COMPASS 1 24 Aug 11:24:11 11:27:24 22° 295° (WNW) 11:30:37 437.405
DUCHIFAT 1 24 Aug 11:24:39 11:27:50 21° 64° (ENE) 11:31:01 145.980
UWE-3 24 Aug 11:25:35 11:29:34 40° 290° (WNW) 11:33:28 435.000/436.395/437.385
Oscar 11 24 Aug 11:27:23 11:31:38 58° 287° (WNW) 11:35:52 145.826/435.025
FUNcube-1 24 Aug 11:29:35 11:33:43 58° 287° (WNW) 11:37:46 145.935
ANTELSAT 24 Aug 11:33:02 11:37:34 52° 260° (W) 11:42:01 437.575/2403.000
HUMSAT D 24 Aug 11:33:24 11:37:10 35° 97° (E) 11:40:55 437.325/437.525
NANOSAT C BR1 24 Aug 11:35:57 11:39:35 28° 66° (ENE) 11:43:14 145.865
ZACube-1 24 Aug 11:49:06 11:52:56 34° 291° (WNW) 11:56:41 437.345
RS-15 24 Aug 11:53:41 12:06:08 89° 236° (SW) 12:18:24 29.354- 29.394
BEESAT 2 24 Aug 11:55:37 11:59:08 32° 117° (ESE) 12:02:42 435.950
DELFI C3 24 Aug 11:56:01 11:59:58 61° 286° (WNW) 12:03:54 145.870
TIGRISAT 24 Aug 12:05:55 12:09:51 27° 265° (W) 12:13:44 435.000
Cosmos 2499 24 Aug 12:07:49 12:12:41 18° 78° (ENE) 12:17:21 435.465 / 435.565
HO-68 24 Aug 12:07:57 12:12:47 20° 310° (NW) 12:17:37 435.675
GONETS M04 24 Aug 12:13:45 12:20:42 28° 80° (E) 12:27:41
QB50P1 24 Aug 12:16:55 12:21:11 77° 75° (ENE) 12:25:29 145.935-145.965
Oscar 19 24 Aug 12:18:44 12:19:10 10° 51° (NE) 12:19:37 437.125/150
AUBIESAT-1 24 Aug 12:19:03 12:22:23 22° 98° (E) 12:25:31 437.475
M-CUBED/EXP-1 PRIME 24 Aug 12:21:03 12:24:49 29° 100° (E) 12:28:19 437.505
BEESAT 3 24 Aug 12:21:11 12:25:05 77° 307° (NW) 12:29:03 437.485
JAS-2 24 Aug 12:23:23 12:28:16 43° 67° (ENE) 12:33:27 435.910
VELOX 1 24 Aug 12:24:56 12:26:56 13° 88° (E) 12:28:58 145.980
POPSAT HIP 1 24 Aug 12:26:32 12:30:50 87° 260° (W) 12:35:09 437.405
PCSat 24 Aug 12:27:09 12:29:26 13° 102° (ESE) 12:31:42 145.827
ISS 24 Aug 12:29:48 12:33:04 76° 334° (NNW) 12:36:20 145.825
CUSAT 1 24 Aug 12:31:07 12:36:45 50° 264° (W) 12:43:42 437.405
BUGSAT 1 24 Aug 12:34:47 12:38:51 47° 71° (ENE) 12:42:58 437.445
UNISAT 6 24 Aug 12:35:01 12:37:31 14° 271° (W) 12:39:59 437.425
CUBEBUG 1 24 Aug 12:36:07 12:39:26 20° 92° (E) 12:42:44 437.445
ESTCUBE 1 24 Aug 12:47:35 12:51:50 39° 97° (E) 12:56:04 437.505/2401.250
DANDE 24 Aug 12:51:30 12:56:14 73° 260° (W) 13:02:35 436.750
DX 1 24 Aug 12:54:33 12:57:30 17° 91° (E) 13:00:27 434.975-435.025
QB50P2 24 Aug 12:56:20 13:00:22 39° 262° (W) 13:04:25 145.880/145.840
Gurwin Techsat 1B 24 Aug 12:57:19 12:58:57 11° 52° (NE) 13:00:35 435.225
POLYITAN 1 24 Aug 12:58:53 13:02:54 39° 262° (W) 13:06:56 437.675
DUCHIFAT 1 24 Aug 12:59:11 13:03:15 43° 261° (W) 13:07:21 145.980
HUMSAT D 24 Aug 13:09:25 13:12:38 23° 294° (WNW) 13:15:50 437.325/437.525
NANOSAT C BR1 24 Aug 13:11:27 13:15:15 31° 264° (W) 13:19:04 145.865
SPROUT 24 Aug 13:11:42 13:14:53 20° 92° (E) 13:18:02 437.525
AISAT 24 Aug 13:11:49 13:16:02 39° 98° (E) 13:20:12 437.250
AO-7 24 Aug 13:25:47 13:29:03 13° 34° (NE) 13:32:19 29.400- 29.500
BEESAT 2 24 Aug 13:33:22 13:36:56 32° 316° (NW) 13:40:34 435.950
AIST 2 24 Aug 13:35:52 13:38:33 17° 112° (ESE) 13:41:15 435.215
UKube-1 24 Aug 13:41:30 13:45:37 40° 99° (E) 13:49:42 .
TISAT 1 24 Aug 13:47:07 13:47:24 10° 87° (E) 13:47:40 437.305
50 SAT 24 Aug 13:50:18 13:53:56 76° 285° (WNW) 13:57:35 437.505
Oscar 19 24 Aug 13:52:23 13:57:25 59° 71° (ENE) 14:02:32 437.125/150
AUBIESAT-1 24 Aug 13:53:02 13:56:59 37° 298° (WNW) 14:00:40 437.475
M-CUBED/EXP-1 PRIME 24 Aug 13:55:29 13:59:19 31° 300° (WNW) 14:02:54 437.505
QB50P1 24 Aug 13:56:02 13:57:30 11° 272° (W) 13:58:57 145.935-145.965
Cosmos 2499 24 Aug 13:56:28 14:04:44 83° 97° (E) 14:12:23 435.465 / 435.565
VELOX 1 24 Aug 13:59:28 14:03:56 74° 287° (WNW) 14:08:23 145.980
BEESAT 3 24 Aug 14:01:09 14:03:26 15° 328° (NNW) 14:05:43 437.485
PCSat 24 Aug 14:06:31 14:11:56 81° 121° (ESE) 14:17:23 145.827
ISS 24 Aug 14:06:47 14:09:48 34° 355° (N) 14:12:49 145.825
RS-15 24 Aug 14:07:23 14:17:05 29° 259° (WSW) 14:26:42 29.354- 29.394
GONETS M04 24 Aug 14:07:56 14:16:40 73° 281° (WNW) 14:25:32
JAS-2 24 Aug 14:09:19 14:13:39 27° 267° (W) 14:18:12 435.910
BUGSAT 1 24 Aug 14:11:30 14:14:28 18° 268° (W) 14:17:28 437.445
CUBEBUG 1 24 Aug 14:11:41 14:15:57 45° 290° (WNW) 14:20:10 437.445
ESTCUBE 1 24 Aug 14:24:45 14:28:28 26° 295° (WNW) 14:32:11 437.505/2401.250
DX 1 24 Aug 14:29:43 14:34:01 52° 289° (WNW) 14:38:16 434.975-435.025
Gurwin Techsat 1B 24 Aug 14:32:39 14:37:53 64° 71° (ENE) 14:43:10 435.225
DANDE 24 Aug 14:38:27 14:38:39 10° 273° (W) 14:38:51 436.750
AO-85 24 Aug 14:43:30 14:47:15 26° 37° (NE) 14:50:45 145.980
SPROUT 24 Aug 14:46:57 14:51:02 43° 290° (WNW) 14:55:05 437.525
AISAT 24 Aug 14:48:40 14:52:19 25° 296° (WNW) 14:55:57 437.250
O/OREOS (USA 219) 24 Aug 14:56:37 14:59:59 21° 102° (ESE) 15:03:23 437.305
ITAMSAT 1 24 Aug 14:58:45 15:03:30 37° 66° (ENE) 15:08:15 435.822/435.867
BEESAT 24 Aug 14:59:47 15:02:06 13° 89° (E) 15:04:25 436.000
AO-7 24 Aug 15:11:58 15:19:40 43° 58° (ENE) 15:27:21 29.400- 29.500
AIST 2 24 Aug 15:12:32 15:16:36 59° 310° (NW) 15:20:43 435.215
UKube-1 24 Aug 15:18:00 15:21:27 23° 296° (WNW) 15:24:53 .
TISAT 1 24 Aug 15:19:24 15:23:39 84° 285° (WNW) 15:27:50 437.305
Oscar 19 24 Aug 15:33:23 15:37:09 20° 269° (W) 15:40:57 437.125/150
VELOX 1 24 Aug 15:39:00 15:39:36 10° 305° (NW) 15:40:11 145.980
ITUPSAT 1 24 Aug 15:43:13 15:47:33 33° 97° (E) 15:51:52 437.325
ISS 24 Aug 15:43:31 15:46:40 45° 16° (NNE) 15:49:50 145.825
PCSat 24 Aug 15:51:40 15:55:58 23° 322° (NW) 16:00:18 145.827
Cosmos 2499 24 Aug 15:52:36 15:58:43 23° 298° (WNW) 16:04:34 435.465 / 435.565
GONETS M04 24 Aug 16:09:38 16:15:20 18° 306° (NW) 16:21:05
YUBILEINY 24 Aug 16:10:42 16:12:33 11° 44° (NE) 16:14:23 435.215
Gurwin Techsat 1B 24 Aug 16:14:33 16:18:19 19° 270° (W) 16:22:04 435.225
SWISSCUBE 24 Aug 16:18:05 16:22:53 81° 104° (ESE) 16:27:39 437.505
AO-85 24 Aug 16:23:46 16:27:58 49° 240° (WSW) 16:31:50 145.980
HORYU 2 24 Aug 16:30:26 16:33:09 16° 60° (ENE) 16:35:52 437.375
O/OREOS (USA 219) 24 Aug 16:34:44 16:39:04 46° 301° (WNW) 16:43:28 437.305
BEESAT 24 Aug 16:35:41 16:40:28 78° 287° (WNW) 16:45:12 436.000
ITAMSAT 1 24 Aug 16:38:22 16:42:59 32° 264° (W) 16:47:39 435.822/435.867
AIST 2 24 Aug 16:53:53 16:55:58 13° 331° (NNW) 16:58:02 435.215
STARS 24 Aug 16:54:01 16:54:49 10° 87° (E) 16:55:37 437.465
TISAT 1 24 Aug 16:57:48 16:58:34 10° 303° (WNW) 16:59:21 437.305
BRITE-PL 24 Aug 17:01:06 17:03:43 14° 55° (NE) 17:06:26 437.365/2234.400
AO-7 24 Aug 17:04:09 17:12:16 53° 258° (WSW) 17:20:26 29.400- 29.500
CUTE-I 24 Aug 17:15:51 17:17:50 12° 53° (NE) 17:19:50 437.470
ISS 24 Aug 17:19:59 17:23:07 44° 214° (SW) 17:26:13 145.825
ITUPSAT 1 24 Aug 17:21:08 17:25:20 32° 295° (WNW) 17:29:31 437.325
MOZHAYETS 4 24 Aug 17:21:09 17:25:38 52° 100° (E) 17:30:05
NOAA 18 24 Aug 17:24:29 17:27:23 15° 53° (NE) 17:30:17 137.9125
NOAA 15 24 Aug 17:27:09 17:30:40 18° 57° (ENE) 17:34:12 137.62
KKS-1 24 Aug 17:41:35 17:46:03 64° 102° (ESE) 17:50:29 437.445
Cosmos 2491 24 Aug 17:51:27 17:56:15 16° 73° (ENE) 18:01:04 435.465 / 435.565
SWISSCUBE 24 Aug 17:57:23 18:00:03 15° 302° (WNW) 18:02:43 437.505
YUBILEINY 24 Aug 18:03:53 18:12:16 46° 71° (ENE) 18:20:33 435.215
HORYU 2 24 Aug 18:04:46 18:09:12 67° 257° (WSW) 18:13:41 437.375
BEESAT 24 Aug 18:15:46 18:17:27 12° 305° (NW) 18:19:07 436.000
STARS 24 Aug 18:27:22 18:31:49 87° 285° (WNW) 18:36:12 437.465
GOMX 1 24 Aug 18:30:54 18:35:37 41° 68° (ENE) 18:40:37 467.674
CUBESAT XI-V 24 Aug 18:31:30 18:35:53 38° 97° (E) 18:40:16 437.345
BEESAT 2 24 Aug 18:34:10 18:35:42 12° 28° (NNE) 18:37:14 435.950
BRITE-PL 24 Aug 18:36:33 18:41:19 89° 78° (ENE) 18:46:34 437.365/2234.400
Cosmos 2504 24 Aug 18:37:31 18:43:23 25° 63° (ENE) 18:49:05 435.465 / 435.565
Cubesat XI-IV 24 Aug 18:38:44 18:43:56 53° 69° (ENE) 18:49:07 437.490
LilacSat-2 24 Aug 18:42:14 18:45:57 46° 72° (ENE) 18:49:39 437.200
CUTE-I 24 Aug 18:51:38 18:56:56 68° 72° (ENE) 19:02:15 437.470
DOVE 4 24 Aug 18:55:36 19:00:14 35° 66° (ENE) 19:05:00 437.250
BEESAT 3 24 Aug 18:58:36 19:01:50 23° 39° (NE) 19:05:02 437.485
MOZHAYETS 4 24 Aug 18:59:08 19:02:27 20° 298° (WNW) 19:05:47
NOAA 18 24 Aug 19:01:38 19:07:11 78° 72° (ENE) 19:12:43 137.9125
HO-68 24 Aug 19:04:32 19:10:05 25° 53° (NE) 19:15:38 435.675
NOAA 15 24 Aug 19:04:37 19:09:51 76° 256° (WSW) 19:15:10 137.62
KKS-1 24 Aug 19:19:19 19:22:09 17° 300° (WNW) 19:24:57 437.445
Cosmos 2491 24 Aug 19:42:50 19:51:29 75° 95° (E) 20:00:14 435.465 / 435.565
SEEDS 24 Aug 19:56:45 19:59:44 19° 64° (ENE) 20:02:43 437.485
YUBILEINY 24 Aug 20:00:53 20:09:05 46° 273° (W) 20:17:13 435.215
CINEMA 3 24 Aug 20:01:46 20:06:30 43° 70° (ENE) 20:11:13 145.822/145.860
STRAND 1 24 Aug 20:04:55 20:08:41 20° 91° (E) 20:12:26 437.568
STARS 24 Aug 20:05:55 20:07:27 12° 303° (WNW) 20:08:59 437.465
CUBESAT XI-V 24 Aug 20:09:10 20:13:08 28° 295° (WNW) 20:17:05 437.345
GOMX 1 24 Aug 20:09:26 20:13:48 29° 268° (W) 20:18:26 467.674
CANX-2 24 Aug 20:09:58 20:13:54 40° 70° (ENE) 20:17:51 2200.000
BEESAT 2 24 Aug 20:10:31 20:14:27 51° 49° (NE) 20:18:22 435.950
CUTE 1.7 + AOD 2 24 Aug 20:16:46 20:20:43 41° 70° (ENE) 20:24:41 437.475
LilacSat-2 24 Aug 20:18:12 20:20:30 15° 269° (W) 20:22:48 437.200
BRITE-PL 24 Aug 20:18:46 20:20:41 12° 276° (W) 20:22:40 437.365/2234.400
Cubesat XI-IV 24 Aug 20:20:04 20:24:18 24° 267° (W) 20:28:34 437.490
Cosmos 2504 24 Aug 20:30:14 20:37:32 70° 265° (W) 20:44:36 435.465 / 435.565
DOVE 4 24 Aug 20:33:09 20:37:51 36° 265° (W) 20:42:44 437.250
CUTE-I 24 Aug 20:33:52 20:37:29 18° 270° (W) 20:41:08 437.470
BEESAT 3 24 Aug 20:35:53 20:39:44 50° 239° (WSW) 20:43:34 437.485
AAUSAT CUBESAT 2 24 Aug 20:37:18 20:40:48 27° 67° (ENE) 20:44:18 437.432
COMPASS 1 24 Aug 20:41:30 20:45:18 37° 70° (ENE) 20:49:08 437.405
CUBEBUG 2 24 Aug 20:43:34 20:47:47 34° 68° (ENE) 20:51:56 437.445
NOAA 18 24 Aug 20:44:59 20:48:27 17° 270° (W) 20:51:57 137.9125
UWE-3 24 Aug 20:48:59 20:52:48 27° 66° (ENE) 20:56:34 435.000/436.395/437.385
NOAA 15 24 Aug 20:49:42 20:50:32 10° 275° (W) 20:51:23 137.62
HO-68 24 Aug 20:49:51 20:57:04 82° 254° (WSW) 21:04:20 435.675
Oscar 11 24 Aug 20:50:11 20:53:05 18° 62° (ENE) 20:55:59 145.826/435.025
FUNcube-1 24 Aug 20:52:46 20:55:49 18° 63° (ENE) 20:58:49 145.935
PCSat 24 Aug 21:08:41 21:13:13 26° 40° (NE) 21:17:41 145.827
ZACube-1 24 Aug 21:11:21 21:15:11 28° 67° (ENE) 21:18:57 437.345
DELFI C3 24 Aug 21:12:22 21:13:52 12° 60° (ENE) 21:15:22 145.870
AIST 1 24 Aug 21:21:19 21:25:33 43° 75° (ENE) 21:29:45
PRISM 24 Aug 21:23:07 21:24:56 12° 89° (E) 21:26:44 437.425
SEEDS 24 Aug 21:31:09 21:35:08 45° 261° (W) 21:39:10 437.485
M-CUBED/EXP-1 PRIME 24 Aug 21:38:29 21:39:43 11° 49° (NE) 21:40:57 437.505
CINEMA 3 24 Aug 21:39:33 21:43:46 27° 267° (W) 21:47:59 145.822/145.860
Cosmos 2491 24 Aug 21:42:00 21:49:15 28° 298° (WNW) 21:56:34 435.465 / 435.565
STRAND 1 24 Aug 21:43:14 21:48:14 57° 290° (WNW) 21:53:13 437.568
CANX-2 24 Aug 21:46:45 21:49:56 21° 268° (W) 21:53:07 2200.000
BEESAT 2 24 Aug 21:49:06 21:51:57 19° 247° (WSW) 21:54:47 435.950
AIST 2 24 Aug 21:53:00 21:56:47 32° 43° (NE) 22:00:33 435.215
CUTE 1.7 + AOD 2 24 Aug 21:53:36 21:56:44 20° 268° (W) 21:59:53 437.475
AAUSAT CUBESAT 2 24 Aug 22:12:38 22:16:13 29° 265° (W) 22:19:51 437.432
COMPASS 1 24 Aug 22:17:50 22:21:00 21° 267° (W) 22:24:12 437.405
GONETS M04 24 Aug 22:19:15 22:24:36 17° 52° (NE) 22:29:56
CUBEBUG 2 24 Aug 22:20:16 22:24:24 30° 265° (W) 22:28:29 437.445
Oscar 11 24 Aug 22:24:37 22:28:50 53° 260° (W) 22:33:04 145.826/435.025
UWE-3 24 Aug 22:24:51 22:29:07 37° 263° (W) 22:33:20 435.000/436.395/437.385
Cosmos 2504 24 Aug 22:26:50 22:29:21 12° 287° (WNW) 22:31:51 435.465 / 435.565
HUMSAT D 24 Aug 22:27:12 22:31:02 36° 69° (ENE) 22:34:50 437.325/437.525
FUNcube-1 24 Aug 22:27:18 22:31:41 55° 260° (W) 22:36:00 145.935
HO-68 24 Aug 22:41:37 22:45:52 16° 273° (W) 22:50:09 435.675
DELFI C3 24 Aug 22:44:14 22:48:09 73° 258° (WSW) 22:52:06 145.870
UNISAT 6 24 Aug 22:47:07 22:48:18 11° 87° (E) 22:49:27 437.425
ZACube-1 24 Aug 22:47:20 22:51:23 33° 264° (W) 22:55:23 437.345
PCSat 24 Aug 22:51:42 22:57:07 70° 241° (WSW) 23:02:30 145.827
PRISM 24 Aug 22:56:31 23:00:41 68° 286° (WNW) 23:04:50 437.425
AIST 1 24 Aug 22:59:40 23:02:50 20° 274° (W) 23:05:59
AUBIESAT-1 24 Aug 23:06:11 23:10:38 49° 65° (ENE) 23:15:07 437.475
M-CUBED/EXP-1 PRIME 24 Aug 23:08:43 23:13:19 62° 67° (ENE) 23:18:00 437.505
ANTELSAT 24 Aug 23:22:15 23:25:52 25° 94° (E) 23:29:24 437.575/2403.000
VELOX 1 24 Aug 23:24:40 23:27:37 18° 61° (ENE) 23:30:36 145.980
O/OREOS (USA 219) 24 Aug 23:24:52 23:26:36 12° 42° (NE) 23:28:20 437.305
AIST 2 24 Aug 23:31:28 23:35:18 35° 242° (WSW) 23:39:08 435.215
CUBEBUG 1 24 Aug 23:34:43 23:38:17 25° 64° (ENE) 23:41:54 437.445
Cosmos 2499 24 Aug 23:44:35 23:50:54 33° 68° (ENE) 23:57:08 435.465 / 435.565
ESTCUBE 1 24 Aug 23:49:39 23:53:58 50° 71° (ENE) 23:58:20 437.505/2401.250
DX 1 24 Aug 23:52:39 23:56:04 23° 63° (ENE) 23:59:30 434.975-435.025
TIGRISAT 24 Aug 23:53:47 23:58:01 50° 100° (E) 00:02:09 435.000
HUMSAT D 25 Aug 00:03:27 00:06:46 22° 267° (W) 00:10:03 437.325/437.525
SPROUT 25 Aug 00:07:56 00:11:20 23° 65° (ENE) 00:14:45 437.525
POPSAT HIP 1 25 Aug 00:10:18 00:12:07 12° 89° (E) 00:13:56 437.405
AISAT 25 Aug 00:11:37 00:15:54 49° 71° (ENE) 00:20:15 437.250
GONETS M04 25 Aug 00:14:35 00:23:27 67° 77° (ENE) 00:32:14
UNISAT 6 25 Aug 00:21:16 00:25:38 79° 285° (WNW) 00:29:53 437.425
50 SAT 25 Aug 00:29:58 00:33:31 70° 75° (ENE) 00:37:06 437.505
QB50P2 25 Aug 00:38:27 00:42:03 26° 95° (E) 00:45:36 145.880/145.840
UKube-1 25 Aug 00:38:29 00:42:39 49° 70° (ENE) 00:46:51 .
PCSat 25 Aug 00:38:30 00:39:30 10° 259° (W) 00:40:31 145.827
TISAT 1 25 Aug 00:40:36 00:42:33 13° 59° (ENE) 00:44:29 437.305
DUCHIFAT 1 25 Aug 00:40:42 00:44:06 23° 94° (E) 00:47:28 145.980
POLYITAN 1 25 Aug 00:40:59 00:44:35 26° 95° (E) 00:48:09 437.675
AUBIESAT-1 25 Aug 00:41:40 00:45:16 22° 262° (W) 00:48:55 437.475
M-CUBED/EXP-1 PRIME 25 Aug 00:44:58 00:48:11 18° 264° (W) 00:51:25 437.505
NANOSAT C BR1 25 Aug 00:52:35 00:56:24 32° 96° (E) 01:00:12 145.865
ANTELSAT 25 Aug 00:58:44 01:02:39 34° 292° (WNW) 01:06:30 437.575/2403.000
VELOX 1 25 Aug 00:59:17 01:03:39 59° 259° (W) 01:08:05 145.980
SO-50 25 Aug 01:02:00 01:06:11 29° 116° (ESE) 01:10:20 436.795
O/OREOS (USA 219) 25 Aug 01:02:20 01:06:56 68° 63° (ENE) 01:11:30 437.305
CUBEBUG 1 25 Aug 01:10:18 01:14:23 38° 263° (W) 01:18:33 437.445
JAS-2 25 Aug 01:12:10 01:18:11 36° 96° (E) 01:24:47 435.910
DX 1 25 Aug 01:27:53 01:32:01 42° 261° (W) 01:36:12 434.975-435.025
ESTCUBE 1 25 Aug 01:27:53 01:31:04 19° 269° (W) 01:34:16 437.505/2401.250
TIGRISAT 25 Aug 01:31:21 01:34:21 19° 298° (WNW) 01:37:18 435.000
QB50P1 25 Aug 01:34:26 01:38:42 85° 285° (WNW) 01:42:54 145.935-145.965
Cosmos 2499 25 Aug 01:37:30 01:44:18 51° 269° (W) 01:51:04 435.465 / 435.565
CUSAT 1 25 Aug 01:39:32 01:42:11 33° 289° (WNW) 01:45:23 437.405
SPROUT 25 Aug 01:43:01 01:47:04 40° 262° (W) 01:51:09 437.525
POPSAT HIP 1 25 Aug 01:44:10 01:48:24 69° 286° (WNW) 01:52:34 437.405
BUGSAT 1 25 Aug 01:48:55 01:53:02 53° 100° (E) 01:57:03 437.445
AISAT 25 Aug 01:49:29 01:52:40 19° 268° (W) 01:55:52 437.250
SWISSCUBE 25 Aug 01:51:30 01:54:41 18° 60° (ENE) 01:57:52 437.505
UNISAT 6 25 Aug 02:01:14 02:01:33 10° 304° (NW) 02:01:54 437.425
Oscar 19 25 Aug 02:02:07 02:05:24 17° 89° (E) 02:08:41 437.125/150
DANDE 25 Aug 02:06:14 02:08:46 56° 283° (WNW) 02:11:29 436.750
BEESAT 25 Aug 02:08:23 02:12:04 23° 62° (ENE) 02:15:46 436.000
GONETS M04 25 Aug 02:12:14 02:19:35 31° 279° (W) 02:26:55
TISAT 1 25 Aug 02:13:21 02:17:36 79° 257° (WSW) 02:21:53 437.305
QB50P2 25 Aug 02:14:06 02:17:52 32° 293° (WNW) 02:21:38 145.880/145.840
UKube-1 25 Aug 02:15:59 02:18:59 18° 268° (W) 02:22:00 .
DUCHIFAT 1 25 Aug 02:16:02 02:19:54 36° 291° (WNW) 02:23:43 145.980
POLYITAN 1 25 Aug 02:16:39 02:20:25 31° 292° (WNW) 02:24:08 437.675
RS-15 25 Aug 02:20:27 02:31:04 45° 109° (ESE) 02:42:10 29.354- 29.394
NANOSAT C BR1 25 Aug 02:28:30 02:32:02 26° 294° (WNW) 02:35:31 145.865
SO-50 25 Aug 02:41:49 02:46:31 47° 314° (NW) 02:51:09 436.795
O/OREOS (USA 219) 25 Aug 02:43:12 02:45:47 15° 261° (W) 02:48:21 437.305
Gurwin Techsat 1B 25 Aug 02:46:43 02:50:36 20° 91° (E) 02:54:27 435.225
ITUPSAT 1 25 Aug 02:52:31 02:57:09 54° 71° (ENE) 03:01:48 437.325
JAS-2 25 Aug 02:57:07 03:03:20 51° 292° (WNW) 03:10:17 435.910
KKS-1 25 Aug 03:09:12 03:10:43 12° 56° (NE) 03:12:13 437.445
QB50P1 25 Aug 03:12:50 03:13:45 11° 303° (WNW) 03:14:40 145.935-145.965
BUGSAT 1 25 Aug 03:25:18 03:28:00 17° 299° (WNW) 03:30:41 437.445
SWISSCUBE 25 Aug 03:27:17 03:32:00 65° 258° (WSW) 03:36:45 437.505
Oscar 19 25 Aug 03:40:04 03:45:16 72° 287° (WNW) 03:50:27 437.125/150
BEESAT 25 Aug 03:44:58 03:49:34 49° 260° (W) 03:54:12 436.000
STARS 25 Aug 03:52:24 03:55:00 15° 59° (ENE) 03:57:36 437.465
Cosmos 2491 25 Aug 03:57:13 03:58:07 10° 43° (NE) 03:59:01 435.465 / 435.565
MOZHAYETS 4 25 Aug 04:25:33 04:30:05 68° 74° (ENE) 04:34:37
SO-50 25 Aug 04:25:35 04:28:08 14° 336° (NNW) 04:30:42 436.795
Gurwin Techsat 1B 25 Aug 04:25:43 04:30:58 61° 289° (WNW) 04:36:11 435.225
RS-15 25 Aug 04:31:25 04:43:03 67° 315° (NW) 04:55:20 29.354- 29.394
ITUPSAT 1 25 Aug 04:31:54 04:35:19 19° 268° (W) 04:38:44 437.325
PHONESAT 2.4 25 Aug 04:39:45 04:41:28 14° 161° (SSE) 04:43:12 2401.200-2431.200
KKS-1 25 Aug 04:42:03 04:46:32 83° 75° (ENE) 04:51:04 437.445
JAS-2 25 Aug 04:45:24 04:47:09 11° 311° (NW) 04:48:56 435.910
ITAMSAT 1 25 Aug 04:47:23 04:52:35 71° 103° (ESE) 04:57:44 435.822/435.867
AO-7 25 Aug 05:02:09 05:10:05 46° 100° (E) 05:17:56 29.400- 29.500
Oscar 19 25 Aug 05:21:36 05:23:42 12° 306° (NW) 05:25:46 437.125/150
STARS 25 Aug 05:26:25 05:30:51 69° 258° (WSW) 05:35:18 437.465
CUBESAT XI-V 25 Aug 05:37:23 05:41:50 50° 71° (ENE) 05:46:18 437.345
Cosmos 2491 25 Aug 05:49:37 05:57:58 44° 70° (ENE) 06:06:17 435.465 / 435.565
HORYU 2 25 Aug 05:53:37 05:56:43 18° 92° (E) 05:59:47 437.375
MOZHAYETS 4 25 Aug 06:05:16 06:07:43 14° 271° (W) 06:10:12
Gurwin Techsat 1B 25 Aug 06:08:36 06:09:52 11° 308° (NW) 06:11:09 435.225
PHONESAT 2.4 25 Aug 06:14:47 06:17:17 24° 177° (S) 06:19:47 2401.200-2431.200
KKS-1 25 Aug 06:22:14 06:23:43 11° 272° (W) 06:25:11 437.445
ITAMSAT 1 25 Aug 06:27:58 06:31:31 19° 302° (WNW) 06:35:03 435.822/435.867
GOMX 1 25 Aug 06:32:09 06:33:52 11° 83° (E) 06:35:33 467.674
BRITE-PL 25 Aug 06:38:20 06:43:14 29° 92° (E) 06:48:03 437.365/2234.400
AO-85 25 Aug 06:39:56 06:44:29 30° 115° (ESE) 06:48:50 145.980
RS-15 25 Aug 06:47:37 06:58:21 35° 346° (NNW) 07:09:25 29.354- 29.394
Cubesat XI-IV 25 Aug 06:54:09 06:57:28 16° 89° (E) 07:00:45 437.490
AO-7 25 Aug 06:55:03 07:02:54 48° 300° (WNW) 07:10:43 29.400- 29.500
CUTE-I 25 Aug 07:06:28 07:10:29 21° 91° (E) 07:14:28 437.470
YUBILEINY 25 Aug 07:08:20 07:16:36 47° 87° (E) 07:24:53 435.215
CUBESAT XI-V 25 Aug 07:16:10 07:19:30 20° 269° (W) 07:22:52 437.345
NOAA 15 25 Aug 07:17:01 07:21:47 33° 96° (E) 07:26:31 137.62
Cosmos 2504 25 Aug 07:20:46 07:26:23 20° 79° (ENE) 07:31:48 435.465 / 435.565
NOAA 18 25 Aug 07:21:21 07:25:50 25° 93° (E) 07:30:18 137.9125
STRAND 1 25 Aug 07:23:15 07:27:58 39° 67° (ENE) 07:32:43 437.568
HORYU 2 25 Aug 07:29:16 07:33:34 50° 289° (WNW) 07:37:49 437.375
Cosmos 2491 25 Aug 07:46:36 07:54:55 48° 272° (W) 08:03:14 435.465 / 435.565
LilacSat-2 25 Aug 07:46:51 07:50:31 46° 99° (E) 07:54:09 437.200
SO-50 25 Aug 07:50:33 07:53:20 15° 26° (NNE) 07:56:05 436.795
PHONESAT 2.4 25 Aug 07:50:59 07:53:08 18° 194° (SSW) 07:55:18 2401.200-2431.200
GOMX 1 25 Aug 08:07:20 08:12:52 77° 102° (ESE) 08:18:09 467.674
